Weather History for Rochelle, IL

Change the Weather History Date:

Friday, February 1, 2013

  Actual Average (KRFD) Record (KRFD)
Temperature  
Mean Temperature 6 °F 22 °F  
Max Temperature 15 °F 31 °F 48 °F (1968)
Min Temperature -2 °F 14 °F -22 °F (1985)
Degree Days  
Heating Degree Days 59 43  
Month to date heating degree days 43  
Since 1 July heating degree days 3952  
Cooling Degree Days 0 0  
Month to date cooling degree days 0  
Year to date cooling degree days 0  
Moisture  
Dew Point 0 °F    
Average Humidity 77    
Maximum Humidity 93    
Minimum Humidity 68    
Precipitation  
Precipitation 0.00 in 0.04 in 0.85 in (1908)
Month to date precipitation 0.04  
Year to date precipitation 1.41  
Snow  
Snow 0.00 in 0.30 in 10.90 in (2011)
Month to date snowfall 0.3  
Since 1 July snowfall 23.6  
Snow Depth -    
Sea Level Pressure  
Sea Level Pressure 30.27 in    
Wind  
Wind Speed 15 mph (WSW)    
Max Wind Speed 21 mph    
Max Gust Speed 25 mph    
Visibility 9 miles    
Events Snow    
T = Trace of Precipitation, MM = Missing Value Source: NWS Daily Summary

Daily Weather History Graph

Daily Weather History Graph

Search for Another Location

Airport:

Trip Planner

Search our weather history database for the weather conditions in past years. The results will help you decide how hot, cold, wet, or windy it might be!

Date:

Astronomy

Feb. 01, 2013 Rise Set
Actual Time 7:08 AM CST 5:11 PM CST
Civil Twilight 6:39 AM CST 5:41 PM CST
Nautical Twilight 6:05 AM CST 6:14 PM CST
Astronomical Twilight 5:33 AM CST 6:47 PM CST
Moon 11:25 PM CST (2/1) 9:35 AM CST (2/1)
Length of Visible Light 11h 02m
Length of Day
10h 03m
Waning Gibbous, 70% of the Moon is Illuminated
Feb 1
Waning Gibbous
Feb 3
Last Quarter
Feb 10
New
Feb 17
First Quarter
Feb 25
Full

Hourly Weather History & Observations

Time (CST) Temp. Windchill Dew Point Humidity Pressure Visibility Wind Dir Wind Speed Gust Speed Precip Events Conditions
12:15 AM 1.8 °F -19.5 °F -4.2 °F 76% 30.21 in 10.0 mi WNW 19.6 mph 23.0 mph N/A   Clear
12:35 AM 1.4 °F -19.4 °F -4.2 °F 77% 30.21 in 10.0 mi West 18.4 mph - N/A   Clear
12:55 AM 1.2 °F -20.7 °F -4.7 °F 76% 30.22 in 10.0 mi West 20.7 mph - N/A   Clear
1:15 AM 1.2 °F -19.1 °F -4.7 °F 76% 30.23 in 10.0 mi WNW 17.3 mph - N/A   Clear
1:35 AM 1.0 °F -20.9 °F -4.7 °F 77% 30.24 in 10.0 mi West 20.7 mph - N/A   Clear
2:15 AM 0.5 °F -20.6 °F -5.1 °F 77% 30.25 in 10.0 mi West 18.4 mph 23.0 mph N/A   Clear
2:35 AM 0.1 °F -21.6 °F -5.4 °F 77% 30.26 in 10.0 mi West 19.6 mph - N/A   Clear
3:15 AM -0.4 °F -21.2 °F -5.8 °F 78% 30.27 in 10.0 mi West 17.3 mph - N/A   Clear
3:35 AM -0.4 °F -21.7 °F -6.2 °F 77% 30.28 in 10.0 mi West 18.4 mph 25.3 mph N/A   Clear
3:55 AM -0.6 °F -22.0 °F -6.0 °F 78% 30.28 in 10.0 mi West 18.4 mph 23.0 mph N/A   Clear
4:15 AM -0.9 °F -22.4 °F -6.5 °F 77% 30.29 in 10.0 mi West 18.4 mph - N/A   Clear
4:35 AM -1.3 °F -19.6 °F -6.7 °F 78% 30.29 in 10.0 mi WNW 12.7 mph - N/A   Clear
5:15 AM -1.5 °F -21.3 °F -6.7 °F 78% 30.30 in 10.0 mi WNW 15.0 mph - N/A   Clear
5:35 AM -1.5 °F -19.8 °F -6.7 °F 78% 30.30 in 10.0 mi WNW 12.7 mph - N/A   Clear
5:55 AM -1.5 °F -20.5 °F -6.3 °F 80% 30.31 in 10.0 mi West 13.8 mph - N/A   Clear
6:15 AM -1.8 °F -21.7 °F -7.6 °F 76% 30.31 in 10.0 mi WNW 15.0 mph - N/A   Clear
6:35 AM -2.2 °F -21.5 °F -7.8 °F 77% 30.31 in 10.0 mi WNW 13.8 mph - N/A   Clear
7:15 AM -2.4 °F -21.7 °F -7.8 °F 78% 30.33 in 10.0 mi WNW 13.8 mph - N/A   Clear
7:35 AM -2.2 °F -22.9 °F -7.2 °F 79% 30.34 in 10.0 mi West 16.1 mph - N/A   Clear
8:15 AM -1.5 °F -19.8 °F -7.2 °F 77% 30.34 in 10.0 mi West 12.7 mph - N/A   Clear
8:35 AM -1.3 °F -19.6 °F -7.4 °F 75% 30.34 in 10.0 mi West 12.7 mph - N/A   Clear
8:55 AM -0.6 °F -18.6 °F -7.1 °F 74% 30.34 in 10.0 mi West 12.7 mph - N/A   Clear
9:15 AM -0.0 °F -16.3 °F -6.0 °F 76% 30.35 in 10.0 mi West 10.4 mph - N/A   Clear
9:35 AM 0.5 °F -17.3 °F -6.0 °F 74% 30.35 in 10.0 mi West 12.7 mph 17.3 mph N/A   Clear
9:55 AM 0.9 °F -17.6 °F -5.4 °F 75% 30.36 in 10.0 mi West 13.8 mph 17.3 mph N/A   Clear
10:15 AM 1.8 °F -14.0 °F -4.4 °F 76% 30.35 in 10.0 mi West 10.4 mph - N/A   Clear
10:35 AM 3.0 °F -14.1 °F -2.9 °F 76% 30.35 in 10.0 mi West 12.7 mph - N/A   Clear
11:15 AM 4.3 °F -10.9 °F -2.7 °F 73% 30.34 in 10.0 mi West 10.4 mph - N/A   Clear
11:35 AM 4.8 °F -13.2 °F -1.7 °F 75% 30.34 in 10.0 mi WSW 15.0 mph 19.6 mph N/A   Clear
11:55 AM 5.5 °F -12.3 °F -1.3 °F 73% 30.34 in 10.0 mi WSW 15.0 mph - N/A   Clear
12:15 PM 5.7 °F -13.2 °F -0.6 °F 75% 30.34 in 10.0 mi West 17.3 mph - N/A   Clear
12:35 PM 6.4 °F -11.7 °F -0.6 °F 73% 30.33 in 10.0 mi WSW 16.1 mph 23.0 mph N/A   Clear
12:55 PM 6.6 °F -12.1 °F -0.0 °F 74% 30.32 in 10.0 mi WSW 17.3 mph 20.7 mph N/A   Clear
1:15 PM 7.7 °F -10.1 °F 1.2 °F 75% 30.31 in 10.0 mi WSW 16.1 mph 20.7 mph N/A   Clear
1:35 PM 7.9 °F -8.6 °F 1.6 °F 75% 30.30 in 10.0 mi WSW 13.8 mph 19.6 mph N/A   Clear
1:55 PM 8.8 °F -6.8 °F 2.3 °F 75% 30.30 in 10.0 mi WSW 12.7 mph - N/A   Clear
2:15 PM 9.1 °F -8.2 °F 2.1 °F 73% 30.29 in 10.0 mi WSW 16.1 mph - N/A   Clear
2:35 PM 9.3 °F -6.8 °F 1.6 °F 71% 30.28 in 10.0 mi WSW 13.8 mph - N/A   Clear
2:55 PM 9.5 °F -5.2 °F 1.0 °F 69% 30.27 in 10.0 mi WSW 11.5 mph - N/A   Clear
3:15 PM 10.0 °F -7.1 °F 1.4 °F 68% 30.28 in 10.0 mi WSW 16.1 mph - N/A   Clear
3:35 PM 10.4 °F -6.0 °F 2.1 °F 69% 30.27 in 10.0 mi WSW 15.0 mph - N/A   Clear
3:55 PM 10.4 °F -6.6 °F 2.5 °F 70% 30.27 in 10.0 mi WSW 16.1 mph 19.6 mph N/A   Clear
4:15 PM 10.2 °F -6.3 °F 2.7 °F 72% 30.27 in 10.0 mi WSW 15.0 mph - N/A   Scattered Clouds
4:35 PM 10.0 °F -7.1 °F 2.8 °F 73% 30.27 in 10.0 mi West 16.1 mph - N/A   Scattered Clouds
4:55 PM 9.7 °F -7.0 °F 2.3 °F 72% 30.26 in 10.0 mi WSW 15.0 mph - N/A   Clear
5:15 PM 9.3 °F -6.8 °F 2.8 °F 75% 30.25 in 10.0 mi WSW 13.8 mph - N/A   Clear
5:35 PM 9.1 °F -6.4 °F 2.7 °F 75% 30.25 in 10.0 mi WSW 12.7 mph - N/A   Clear
5:55 PM 9.3 °F -3.8 °F 3.4 °F 77% 30.24 in 10.0 mi WSW 9.2 mph - N/A   Mostly Cloudy
6:15 PM 9.9 °F -4.0 °F 3.9 °F 77% 30.25 in 10.0 mi WSW 10.4 mph - N/A   Overcast
6:35 PM 10.0 °F -1.9 °F 4.3 °F 78% 30.23 in 10.0 mi SW 8.1 mph - N/A   Overcast
6:55 PM 10.9 °F -4.7 °F 4.8 °F 76% 30.23 in 10.0 mi SW 13.8 mph - N/A   Overcast
7:15 PM 11.3 °F -2.2 °F 4.6 °F 75% 30.21 in 10.0 mi SW 10.4 mph - N/A   Overcast
7:35 PM 11.8 °F -3.0 °F 5.2 °F 75% 30.21 in 10.0 mi SW 12.7 mph - N/A   Overcast
7:55 PM 12.2 °F -0.2 °F 5.7 °F 75% 30.21 in 10.0 mi SW 9.2 mph - N/A   Overcast
8:15 PM 12.7 °F 0.4 °F 6.6 °F 77% 30.20 in 10.0 mi SW 9.2 mph - N/A   Overcast
8:35 PM 13.1 °F 0.1 °F 7.3 °F 78% 30.19 in 10.0 mi SSW 10.4 mph - N/A Snow Light Snow
8:55 PM 13.6 °F 2.5 °F 8.2 °F 79% 30.19 in 5.0 mi SSW 8.1 mph - N/A Snow Light Snow
9:15 PM 14.0 °F 3.9 °F 9.3 °F 82% 30.19 in 2.5 mi SSW 6.9 mph - N/A Snow Light Snow
9:35 PM 13.8 °F 3.7 °F 10.6 °F 87% 30.19 in 2.0 mi SSW 6.9 mph - N/A Snow Light Snow
9:55 PM 14.0 °F 3.9 °F 11.3 °F 89% 30.18 in 1.8 mi SSW 6.9 mph - N/A Snow Light Snow
10:15 PM 14.0 °F 6.5 °F 12.0 °F 92% 30.18 in 1.2 mi SW 4.6 mph - N/A Snow Snow
10:35 PM 14.0 °F - 12.2 °F 93% 30.17 in 1.5 mi Calm Calm - N/A Snow Light Snow
10:55 PM 14.4 °F 6.9 °F 12.6 °F 93% 30.16 in 3.0 mi South 4.6 mph - N/A Snow Light Snow
11:15 PM 14.9 °F 5.0 °F 12.9 °F 92% 30.16 in 3.0 mi South 6.9 mph - N/A Snow Light Snow
11:35 PM 14.9 °F 4.0 °F 13.1 °F 93% 30.14 in 5.0 mi South 8.1 mph - N/A Snow Light Snow
11:55 PM 15.1 °F 4.2 °F 13.1 °F 92% 30.14 in 5.0 mi South 8.1 mph - N/A Snow Light Snow